Home > Weather > Bastia > Past weeks

Flag for France Weather for the Past 2 Weeks in Bastia, Corsica, France

Now
55 °F

Passing clouds.


Feels Like: 50 °F
Forecast: 48 / 55 °F
Wind: 25 mph from West

Location: Bastia Airport

Current Time: Feb 10, 2016 at 6:57:27 AM

Latest Report: Feb 10, 2016 at 6:00 AM


Visibility: N/A

Pressure: 29.53 "Hg

Humidity: 33%

Dew point: 27 °F

Location of BastiaLocation

Historic Weather in Bastia — Graph

°F

Bastia Temperature Yesterday

Maximum temperature yesterday: 61 °F (at 12:30 PM)
Minimum temperature yesterday: 43 °F (at 3:30 AM)
Average temperature yesterday: 53 °F

High & Low Weather Summary for the Past Weeks

 TemperatureHumidityPressure
High63 °F (Jan 31, 12:00 PM)100% (Jan 27, 8:00 PM)30.51 "Hg (Jan 27, 8:00 PM)
Low39 °F (Feb 5, 12:30 AM)17% (Feb 4, 2:30 PM)29.47 "Hg (Feb 10, 1:30 AM)
Average53 °F78%30.22 "Hg
* Reported Jan 26 5:00 AM — Feb 10 5:00 AM, Bastia, Weather by CustomWeather, © 2016

Note: Actual official high and low records may vary slightly from our data, if they occured in-between our weather recording intervals... More about our weather records

Advertising

Bastia Weather History for the Previous 24 Hours

 ConditionsComfort  
Time TempWeatherWind HumidityBarometerVisibility
5:00 AM
Wed, Feb 10
57 °FPassing clouds.28 mph31%29.53 "HgN/A
4:30 AM59 °FPassing clouds.24 mph27%29.53 "HgN/A
4:00 AM59 °FPassing clouds.21 mph29%29.53 "HgN/A
3:30 AM59 °FPassing clouds.22 mph29%29.53 "HgN/A
3:00 AM59 °FMostly cloudy.18 mph29%29.50 "HgN/A
2:30 AM61 °FPassing clouds.23 mph29%29.50 "HgN/A
1:30 AM57 °FPassing clouds.25 mph48%29.47 "HgN/A
1:00 AM55 °FLight rain. Mostly cloudy.25 mph63%29.50 "HgN/A
12:30 AM57 °FLight rain. Mostly cloudy.24 mph63%29.53 "HgN/A
12:00 AM57 °FSprinkles. Passing clouds.12 mph72%29.53 "HgN/A
11:30 PM
Tue, Feb 9
57 °FPassing clouds.8 mph72%29.50 "HgN/A
10:30 PM59 °FPassing clouds.9 mph59%29.53 "HgN/A
10:00 PM59 °FPassing clouds.2 mph63%29.53 "HgN/A
9:30 PM57 °FPassing clouds.2 mph72%29.56 "HgN/A
9:00 PM57 °FPassing clouds.5 mph72%29.56 "HgN/A
8:00 PM57 °FPartly cloudy.2 mph72%29.62 "HgN/A
7:30 PM57 °FLight rain. Partly cloudy.3 mph77%29.62 "HgN/A
7:00 PM55 °FMostly cloudy.3 mph77%29.62 "HgN/A
6:30 PM59 °FMostly cloudy.7 mph72%29.65 "HgN/A
6:00 PM55 °FMostly cloudy.5 mph77%29.65 "HgN/A
5:00 PM57 °FMore clouds than sun.No wind72%29.71 "HgN/A
4:30 PM57 °FMore clouds than sun.2 mph77%29.74 "HgN/A
4:00 PM59 °FMore clouds than sun.3 mph77%29.77 "HgN/A
3:00 PM59 °FMore clouds than sun.2 mph68%29.83 "HgN/A
2:30 PM59 °FMore clouds than sun.2 mph68%29.86 "HgN/A
2:00 PM61 °FMore clouds than sun.3 mph68%29.89 "HgN/A
1:34 PM61 °FMore clouds than sun.3 mph68%29.89 "HgN/A
1:00 PM61 °FPartly sunny.3 mph72%29.92 "HgN/A
12:30 PM61 °FPartly sunny.2 mph72%29.95 "HgN/A
11:30 AM59 °FPassing clouds.6 mph77%29.98 "HgN/A
11:00 AM57 °FPassing clouds.5 mph82%29.98 "HgN/A
10:30 AM54 °FSunny.1 mph77%30.01 "Hg10 mi
10:00 AM52 °FBroken clouds.2 mph77%30.01 "HgN/A
9:00 AM48 °FBroken clouds.3 mph82%30.04 "HgN/A
8:30 AM46 °FBroken clouds.2 mph87%30.04 "HgN/A
7:30 AM45 °FSunny.No wind87%30.04 "Hg10 mi
7:00 AM45 °FPassing clouds.3 mph87%30.04 "HgN/A
6:30 AM45 °FPassing clouds.3 mph87%30.04 "HgN/A
6:00 AM46 °FPassing clouds.1 mph76%30.07 "HgN/A
Weather by CustomWeather, © 2016

See weather overviewHow to use our weather pages